Bellefontaine, OH

12:13 AM EDT on August 23, 2017 (GMT -0400)
Bellefontaine

Weather History for KEDJ - October, 2013

Change the Weather History Date:

Thursday, October 10, 2013

  Actual Average (KDLZ) Record (KDLZ)
Temperature  
Mean Temperature 55 °F -  
Max Temperature 71 °F 65 °F 83 °F (1939)
Min Temperature 39 °F 41 °F 28 °F (1989)
Degree Days  
Heating Degree Days 10    
Growing Degree Days 5 (Base 50)    
Moisture  
Dew Point 41 °F    
Average Humidity 60    
Maximum Humidity 100    
Minimum Humidity 25    
Precipitation  
Precipitation 0.00 in - - ()
Sea Level Pressure  
Sea Level Pressure 30.15 in    
Wind  
Wind Speed 3 mph (ENE)    
Max Wind Speed 9 mph    
Max Gust Speed -    
Visibility 10 miles    
Events      
Averages and records for this station are not official NWS values.
T = Trace of Precipitation, MM = Missing Value Source: NWS Daily Summary

Daily Weather History Graph

Daily Weather History Graph

Search for Another Location

Airport or City:

Trip Planner

Search our weather history database for the weather conditions in past years. The results will help you decide how hot, cold, wet, or windy it might be!

Date:

Astronomy

Oct. 10, 2013 Rise Set
Actual Time 7:41 AM EDT 7:02 PM EDT
Civil Twilight 7:13 AM EDT 7:29 PM EDT
Nautical Twilight 6:42 AM EDT 8:01 PM EDT
Astronomical Twilight 6:10 AM EDT 8:32 PM EDT
Moon 1:32 PM EDT (10/10) 11:38 PM EDT (10/10)
Length of Visible Light 12h 16m
Length of Day
11h 21m
Waxing Crescent, 35% of the Moon is Illuminated
Oct 10
Waxing Crescent
Oct 11
First Quarter
Oct 18
Full
Oct 26
Last Quarter
Nov 3
New

Hourly Weather History & Observations

Time (EDT) Temp. Windchill Dew Point Humidity Pressure Visibility Wind Dir Wind Speed Gust Speed Precip Events Conditions
12:10 AM 55.4 °F - 42.8 °F 63% 30.18 in 10.0 mi East 4.6 mph - 0.00 in   Clear
12:30 AM 53.6 °F - 42.8 °F 67% 30.17 in 10.0 mi ESE 6.9 mph - 0.00 in   Clear
12:50 AM 53.6 °F - 41.0 °F 62% 30.17 in 10.0 mi ESE 5.8 mph - 0.00 in   Clear
1:10 AM 53.6 °F - 41.0 °F 62% 30.17 in 10.0 mi ESE 4.6 mph - 0.00 in   Clear
1:30 AM 53.6 °F - 41.0 °F 62% 30.17 in 10.0 mi ESE 4.6 mph - 0.00 in   Clear
1:50 AM 53.6 °F - 41.0 °F 62% 30.17 in 10.0 mi ESE 5.8 mph - 0.00 in   Clear
2:10 AM 53.6 °F - 41.0 °F 62% 30.17 in 10.0 mi ESE 5.8 mph - 0.00 in   Clear
2:30 AM 50.0 °F - 42.8 °F 76% 30.17 in 10.0 mi ESE 3.5 mph - 0.00 in   Clear
2:50 AM 46.4 °F 43.5 °F 42.8 °F 87% 30.16 in 10.0 mi ESE 5.8 mph - 0.00 in   Clear
3:10 AM 51.8 °F - 41.0 °F 67% 30.16 in 10.0 mi ESE 5.8 mph - 0.00 in   Clear
3:30 AM 51.8 °F - 41.0 °F 67% 30.16 in 10.0 mi East 6.9 mph - 0.00 in   Clear
3:50 AM 51.8 °F - 39.2 °F 62% 30.16 in 10.0 mi ESE 5.8 mph - 0.00 in   Clear
4:10 AM 51.8 °F - 39.2 °F 62% 30.16 in 10.0 mi ESE 6.9 mph - 0.00 in   Clear
4:30 AM 51.8 °F - 39.2 °F 62% 30.16 in 10.0 mi ESE 6.9 mph - 0.00 in   Clear
4:50 AM 48.2 °F - 39.2 °F 71% 30.17 in 10.0 mi Calm Calm - 0.00 in   Clear
5:10 AM 44.6 °F - 39.2 °F 81% 30.17 in 10.0 mi Calm Calm - 0.00 in   Clear
5:30 AM 42.8 °F - 39.2 °F 87% 30.18 in 10.0 mi Calm Calm - 0.00 in   Clear
5:50 AM 44.6 °F - 39.2 °F 81% 30.18 in 10.0 mi Calm Calm - 0.00 in   Clear
6:10 AM 44.6 °F - 41.0 °F 87% 30.18 in 10.0 mi Calm Calm - 0.00 in   Clear
6:30 AM 42.8 °F - 39.2 °F 87% 30.18 in 10.0 mi Calm Calm - 0.00 in   Clear
6:50 AM 39.2 °F - 39.2 °F 100% 30.18 in 10.0 mi Calm Calm - 0.00 in   Clear
7:10 AM 39.2 °F - 39.2 °F 100% 30.18 in 10.0 mi Calm Calm - 0.00 in   Clear
7:30 AM 39.2 °F - 39.2 °F 100% 30.18 in 10.0 mi Calm Calm - 0.00 in   Clear
7:50 AM 39.2 °F - 39.2 °F 100% 30.18 in 10.0 mi Calm Calm - 0.00 in   Clear
8:10 AM 39.2 °F - 39.2 °F 100% 30.18 in 9.0 mi Calm Calm - 0.00 in   Clear
8:30 AM 42.8 °F - 42.8 °F 100% 30.18 in 10.0 mi Calm Calm - 0.00 in   Clear
8:50 AM 46.4 °F - 44.6 °F 93% 30.19 in 10.0 mi Calm Calm - 0.00 in   Clear
9:10 AM 51.8 °F - 44.6 °F 76% 30.19 in 10.0 mi Calm Calm - 0.00 in   Clear
9:30 AM 53.6 °F - 44.6 °F 72% 30.19 in 10.0 mi Calm Calm - 0.00 in   Clear
9:50 AM 53.6 °F - 48.2 °F 82% 30.19 in 10.0 mi Calm Calm - 0.00 in   Clear
10:10 AM 55.4 °F - 46.4 °F 72% 30.19 in 10.0 mi Calm Calm - 0.00 in   Clear
10:30 AM 59.0 °F - 46.4 °F 63% 30.19 in 10.0 mi Calm Calm - 0.00 in   Clear
10:50 AM 62.6 °F - 42.8 °F 48% 30.19 in 10.0 mi NNW 3.5 mph - 0.00 in   Clear
11:10 AM 64.4 °F - 39.2 °F 40% 30.19 in 10.0 mi NE 6.9 mph - 0.00 in   Clear
11:30 AM 64.4 °F - 39.2 °F 40% 30.19 in 10.0 mi NNE 9.2 mph - 0.00 in   Clear
11:50 AM 64.4 °F - 39.2 °F 40% 30.18 in 10.0 mi East 6.9 mph - 0.00 in   Clear
12:10 PM 64.4 °F - 37.4 °F 37% 30.18 in 10.0 mi NE 6.9 mph - 0.00 in   Clear
12:30 PM 66.2 °F - 37.4 °F 35% 30.18 in 10.0 mi NE 5.8 mph - 0.00 in   Clear
12:50 PM 66.2 °F - 35.6 °F 32% 30.18 in 10.0 mi East 6.9 mph - 0.00 in   Clear
1:10 PM 66.2 °F - 35.6 °F 32% 30.17 in 10.0 mi North 4.6 mph - 0.00 in   Clear
1:30 PM 68.0 °F - 37.4 °F 33% 30.16 in 10.0 mi NE 5.8 mph - 0.00 in   Clear
1:50 PM 68.0 °F - 35.6 °F 30% 30.16 in 10.0 mi Calm Calm - 0.00 in   Clear
2:10 PM 69.8 °F - 35.6 °F 28% 30.15 in 10.0 mi NNW 3.5 mph - 0.00 in   Clear
2:30 PM 69.8 °F - 35.6 °F 28% 30.14 in 10.0 mi NW 4.6 mph - 0.00 in   Clear
2:50 PM 69.8 °F - 35.6 °F 28% 30.14 in 10.0 mi NNE 4.6 mph - 0.00 in   Clear
3:10 PM 69.8 °F - 37.4 °F 31% 30.13 in 10.0 mi WNW 3.5 mph - 0.00 in   Clear
3:30 PM 71.6 °F - 35.6 °F 27% 30.13 in 10.0 mi NNE 5.8 mph - 0.00 in   Clear
3:50 PM 71.6 °F - 33.8 °F 25% 30.12 in 10.0 mi Calm Calm - 0.00 in   Clear
4:10 PM 71.6 °F - 35.6 °F 27% 30.12 in 10.0 mi East 3.5 mph - 0.00 in   Clear
4:30 PM 71.6 °F - 37.4 °F 29% 30.11 in 10.0 mi Calm Calm - 0.00 in   Clear
4:50 PM 71.6 °F - 33.8 °F 25% 30.11 in 10.0 mi Calm Calm - 0.00 in   Clear
5:10 PM 71.6 °F - 35.6 °F 27% 30.11 in 10.0 mi Calm Calm - 0.00 in   Clear
5:30 PM 71.6 °F - 35.6 °F 27% 30.10 in 10.0 mi East 3.5 mph - 0.00 in   Clear
5:50 PM 69.8 °F - 37.4 °F 31% 30.10 in 10.0 mi ENE 4.6 mph - 0.00 in   Clear
6:10 PM 69.8 °F - 37.4 °F 31% 30.09 in 10.0 mi Calm Calm - 0.00 in   Clear
6:30 PM 69.8 °F - 37.4 °F 31% 30.09 in 10.0 mi Calm Calm - 0.00 in   Clear
6:50 PM 66.2 °F - 39.2 °F 37% 30.09 in 10.0 mi Calm Calm - 0.00 in   Clear
7:10 PM 64.4 °F - 39.2 °F 40% 30.09 in 10.0 mi Calm Calm - 0.00 in   Clear
7:30 PM 59.0 °F - 46.4 °F 63% 30.09 in 10.0 mi Calm Calm - 0.00 in   Clear
7:50 PM 57.2 °F - 44.6 °F 63% 30.09 in 10.0 mi Calm Calm - 0.00 in   Clear
8:10 PM 55.4 °F - 46.4 °F 72% 30.09 in 10.0 mi Calm Calm - 0.00 in   Clear
8:30 PM 53.6 °F - 46.4 °F 77% 30.09 in 10.0 mi Calm Calm - 0.00 in   Clear
8:50 PM 51.8 °F - 48.2 °F 88% 30.09 in 9.0 mi Calm Calm - 0.00 in   Clear
9:10 PM 53.6 °F - 46.4 °F 77% 30.09 in 10.0 mi Calm Calm - 0.00 in   Clear
9:30 PM 53.6 °F - 46.4 °F 77% 30.09 in 10.0 mi Calm Calm - 0.00 in   Clear
9:50 PM 51.8 °F - 46.4 °F 82% 30.09 in 10.0 mi Calm Calm - 0.00 in   Clear
10:10 PM 51.8 °F - 44.6 °F 76% 30.09 in 8.0 mi Calm Calm - 0.00 in   Clear
10:30 PM 53.6 °F - 42.8 °F 67% 30.09 in 10.0 mi NE 4.6 mph - 0.00 in   Clear
10:50 PM 51.8 °F - 44.6 °F 76% 30.09 in 10.0 mi ENE 5.8 mph - 0.00 in   Clear
11:10 PM 55.4 °F - 44.6 °F 67% 30.09 in 10.0 mi ENE 5.8 mph - 0.00 in   Clear
11:30 PM 55.4 °F - 44.6 °F 67% 30.09 in 10.0 mi Calm Calm - 0.00 in   Clear
11:50 PM 53.6 °F - 44.6 °F 72% 30.09 in 10.0 mi NE 3.5 mph - 0.00 in   Clear